天启 26星 (TIANQI 26)

导读

天启26(皖投一号)卫星由中国于2024年5月29日通过谷神星一号海射型运载火箭,在黄海海域以一箭四星方式成功发射,是天启低轨卫星物联网星座的组成部分。它将与合作方在韧性城市、数字交通、低空经济等领域开展示范应用,助力构建全球覆盖的天地一体卫星物联网生态,推动卫星物联网应用规模化发展。

基本信息
目录编号:
59910
目录名称:
TIANQI 26
国际标识:
2024-102B
轨道中心:
EARTH
卫星名称:
天启 26星
卫星全名:
天启 26星 (TIANQI 26)
卫星状态:
在轨 (已飞行838 天)
发射日期:
2024-05-29 UTC
国别 :
中国 (CN)
星等 :
--
该卫星已列入 空间交会检测服务 Space Conjunction Data Service (SCDS) ,当前飞行风险评估等级: 无高风险
轨道信息
数据来源 国际轨道数据 AOE轨道数据
星历时间 2026-09-14T07:25:54+0800
8小时前
查看轨道信息
2026-09-12T23:00:00+0800
1天前
查看轨道信息
半长轴 7274.786km 7274.787km
偏心率 0.0011842 0.0011906
轨道倾角 44.972° 44.972°
近地点辐角 302.857° 296.902°
升交点赤经 226.414° 232.430°
平近点角 57.112° 90.016°
近地点 888.034km 887.988km
远地点 905.264km 905.312km
周期 102.918分钟 102.918分钟
每日圈数 13.991763 13.99176
详细信息
平衡模式:
三轴稳定
覆盖范围:
全球
运营商:
北京国电高科科技有限公司
运营商所在国:
中国
制造商(研发单位):
北京国电高科科技有限公司
制造商所在国:
中国
使用方式:
暂无
卫星简介
天启星座(Tianqi)由38颗卫星组网而成,提供全球短数据采集。致力于为全球物联网相关行业用户提供覆盖全球、准实时的物联网卫星数据服务,真正实现空中、海洋和地面的万物互联,构建天地一体化的卫星物联网生态系统,全面解决海上、空中以及陆地网络盲区(我国有70%以上陆地没有网络覆盖)的物联网数据通信问题。该卫星仍在工作。
2D轨道图
3D轨道图
轨道高度分析图
轨道倾角分析图
轨道综合分析图
查看轨道综合分析图
交会数据列表
事件ID 空间交会对象 最接近时刻(TCA) 交会距离 交会风险概率(CRP) 交会风险指数(CRI) 操作
CDM_260914-213004-552205-991022
2026-09-14T
21:30:56+0000
1.401 km
极远距离
4.353366E-6 低风险 0.48
与全量物体交会距离演化趋势 订阅飞行安全评估服务
与全量物体交会风险概率演化趋势 订阅飞行安全评估服务